This is the latest recevied weather packets stored in our database for station/object ZS2JO. If no packets are shown the sender has not sent any weather packets the latest 10 day(s).
| Time | Temp. | Humidity | Pressure | Rain* | Wind** | Luminosity | Snow |
|---|---|---|---|---|---|---|---|
| 1778129896 | 15° C | 99% | 1012.9 hPa | 0.51 mm | - | 1 W/m² | - |
| 1778129593 | 15° C | 99% | 1012.8 hPa | 2.29 mm | - | 1 W/m² | - |
| 1778129290 | 15° C | 99% | 1012.7 hPa | 3.05 mm | - | 0 W/m² | - |
| 1778128986 | 14.44° C | 99% | 1012.7 hPa | 0.51 mm | - | 0 W/m² | - |
| 1778128682 | 15° C | 99% | 1012.6 hPa | 0.51 mm | - | 0 W/m² | - |
| 1778128379 | 15° C | 99% | 1012.5 hPa | 3.56 mm | - | 0 W/m² | - |
| 1778128075 | 14.44° C | 99% | 1012.4 hPa | 4.32 mm | - | 0 W/m² | - |
| 1778127770 | 14.44° C | 99% | 1012.5 hPa | 4.32 mm | - | 0 W/m² | - |
| 1778127468 | 14.44° C | 99% | 1012.7 hPa | 3.05 mm | - | 0 W/m² | - |
| 1778127164 | 14.44° C | 99% | 1012.6 hPa | 6.6 mm | - | 0 W/m² | - |
| 1778126862 | 14.44° C | 99% | 1012.4 hPa | 7.11 mm | - | 0 W/m² | - |
| 1778126557 | 15° C | 99% | 1012.3 hPa | 7.87 mm | - | 0 W/m² | - |
| 1778126254 | 15° C | 99% | 1012.4 hPa | 6.6 mm | - | 0 W/m² | - |
| 1778125949 | 15° C | 99% | 1012.3 hPa | 1.78 mm | - | 0 W/m² | - |
| 1778125647 | 15° C | 99% | 1012.1 hPa | 3.05 mm | - | 0 W/m² | - |
| 1778125344 | 15° C | 99% | 1012.2 hPa | 8.38 mm | - | 0 W/m² | - |
| 1778125042 | 15° C | 99% | 1011.8 hPa | 13.21 mm | - | 0 W/m² | - |
| 1778124739 | 14.44° C | 99% | 1012.1 hPa | 10.67 mm | - | 0 W/m² | - |
| 1778124437 | 14.44° C | 99% | 1012 hPa | 3.56 mm | - | 0 W/m² | - |
| 1778124132 | 14.44° C | 99% | 1011.9 hPa | 1.78 mm | - | 0 W/m² | - |
| 1778123829 | 15° C | 99% | 1011.7 hPa | 1.78 mm | - | 0 W/m² | - |
| 1778123526 | 15° C | 99% | 1011.9 hPa | 6.1 mm | - | 0 W/m² | - |
| 1778123223 | 15° C | 99% | 1011.7 hPa | 9.65 mm | - | 0 W/m² | - |
| 1778122921 | 15° C | 99% | 1011.6 hPa | 9.65 mm | - | 0 W/m² | - |
| 1778122617 | 14.44° C | 99% | 1011.5 hPa | 9.65 mm | - | 0 W/m² | - |
* Rain latest hour (hover to see other rain measurements)
** Current wind speed in m/s (hover to see current wind gust speed)